Weather History for Oceana NAS, VA

Change the Weather History Date:

Sunday, September 15, 2013

  Actual Average Record
Temperature  
Mean Temperature 64 °F -  
Max Temperature 75 °F 77 °F 89 °F (2008)
Min Temperature 54 °F 62 °F 54 °F (2013)
Degree Days  
Heating Degree Days 2    
Growing Degree Days 14 (Base 50)    
Moisture  
Dew Point 55 °F    
Average Humidity 71    
Maximum Humidity 93    
Minimum Humidity 48    
Precipitation  
Precipitation 0.00 in - - ()
Sea Level Pressure  
Sea Level Pressure 30.19 in    
Wind  
Wind Speed 3 mph (SE)    
Max Wind Speed 12 mph    
Max Gust Speed -    
Visibility 10 miles    
Events      
Averages and records for this station are not official NWS values.
T = Trace of Precipitation, MM = Missing Value Source: NWS Daily Summary

Daily Weather History Graph

Daily Weather History Graph

Search for Another Location

Airport:

Trip Planner

Search our weather history database for the weather conditions in past years. The results will help you decide how hot, cold, wet, or windy it might be!

Date:

Astronomy

Sep. 15, 2013 Rise Set
Actual Time 6:46 AM EDT 7:11 PM EDT
Civil Twilight 6:20 AM EDT 7:37 PM EDT
Nautical Twilight 5:50 AM EDT 8:07 PM EDT
Astronomical Twilight 5:18 AM EDT 8:38 PM EDT
Moon 4:32 PM EDT (9/15) 2:27 AM EDT (9/15)
Length of Visible Light 13h 16m
Length of Day
12h 24m
Waxing Gibbous, 82% of the Moon is Illuminated
Sep 15
Waxing Gibbous
Sep 19
Full
Sep 26
Last Quarter
Oct 4
New
Oct 11
First Quarter

Hourly Weather History & Observations

Time (EDT) Temp. Dew Point Humidity Pressure Visibility Wind Dir Wind Speed Gust Speed Precip Events Conditions
12:56 AM 60.1 °F 55.0 °F 83% 30.15 in 10.0 mi Calm Calm - N/A   Partly Cloudy
1:56 AM 57.9 °F 54.0 °F 87% 30.17 in 10.0 mi Calm Calm - N/A   Partly Cloudy
2:56 AM 57.0 °F 53.1 °F 87% 30.17 in 10.0 mi Calm Calm - N/A   Partly Cloudy
3:56 AM 55.0 °F 53.1 °F 93% 30.18 in 10.0 mi Calm Calm - N/A   Partly Cloudy
4:56 AM 55.0 °F 53.1 °F 93% 30.18 in 10.0 mi Calm Calm - N/A   Partly Cloudy
5:56 AM 54.0 °F 52.0 °F 93% 30.19 in 10.0 mi Calm Calm - N/A   Scattered Clouds
6:56 AM 55.0 °F 53.1 °F 93% 30.20 in 10.0 mi SW 3.5 mph - N/A   Scattered Clouds
7:56 AM 59.0 °F 55.9 °F 90% 30.21 in 10.0 mi Calm Calm - N/A   Scattered Clouds
8:56 AM 68.0 °F 57.9 °F 70% 30.23 in 10.0 mi West 4.6 mph - N/A   Scattered Clouds
9:56 AM 71.1 °F 53.1 °F 53% 30.24 in 10.0 mi Calm Calm - N/A   Scattered Clouds
10:56 AM 72.0 °F 52.0 °F 49% 30.24 in 10.0 mi SE 3.5 mph - N/A   Scattered Clouds
11:56 AM 73.9 °F 53.1 °F 48% 30.25 in 10.0 mi Variable 4.6 mph - N/A   Scattered Clouds
12:56 PM 73.0 °F 54.0 °F 51% 30.23 in 10.0 mi East 5.8 mph - N/A   Scattered Clouds
1:56 PM 73.0 °F 54.0 °F 51% 30.22 in 10.0 mi East 4.6 mph - N/A   Scattered Clouds
2:56 PM 73.9 °F 55.0 °F 52% 30.19 in 10.0 mi ENE 10.4 mph - N/A   Scattered Clouds
3:56 PM 73.9 °F 55.9 °F 53% 30.17 in 10.0 mi ENE 9.2 mph - N/A   Scattered Clouds
4:56 PM 73.0 °F 55.9 °F 55% 30.16 in 10.0 mi ESE 8.1 mph - N/A   Scattered Clouds
5:56 PM 72.0 °F 57.0 °F 59% 30.15 in 10.0 mi ESE 11.5 mph - N/A   Scattered Clouds
6:56 PM 69.1 °F 57.0 °F 65% 30.15 in 10.0 mi ESE 6.9 mph - N/A   Mostly Cloudy
7:56 PM 66.0 °F 57.0 °F 73% 30.16 in 10.0 mi ESE 3.5 mph - N/A   Mostly Cloudy
8:56 PM 66.9 °F 57.0 °F 70% 30.17 in 10.0 mi SSE 4.6 mph - N/A   Mostly Cloudy
9:56 PM 66.9 °F 57.9 °F 73% 30.16 in 10.0 mi SSE 5.8 mph - N/A   Mostly Cloudy
10:56 PM 66.9 °F 59.0 °F 76% 30.16 in 10.0 mi South 4.6 mph - N/A   Mostly Cloudy
11:56 PM 66.9 °F 59.0 °F 76% 30.15 in 10.0 mi South 3.5 mph - N/A   Mostly Cloudy